THORAD AGENA D DEB, 4178

Orbit data source: Space-Track

THORAD AGENA D DEB, 4178 is space debris in LEO originally from a launch on Tue, 30 Sep 1969 UTC launched from the Air Force Western Test Range (AFWTR). Debris objects in space refer to the collection of defunct objects orbiting the Earth. Examples of debris include non-operational satellites, rocket bodies, and fragments generated from explosions, collisions, or faulty payload assembly.

Loading next visibility...
Identifier
4178, 1969-082AW
Orbit
LEO
Country
Flag of USUS
Related business
Manufacturer
Unknown
Mission
Spacecraft
Bus & Motor
Unknown
Mass
Unknown
Launch date (UTC)
1969-09-30 (57 years ago)
Launch vehicle
Unknown
Launch site
Air Force Western Test Range (AFWTR)
Object type
Payload
Rocket body
Debris
Shape & HBR
Unknown shape, 0.1 m
Radar Cross Section
Small (<0.1 m²)

Expand to show TLE details & history
Last TLE update: 14 hours ago

TLE from 14 hours ago
0 THORAD AGENA D DEB
1 04178U 69082AW  26093.72132897  .00004314  00000-0  11650-2 0  9991
2 04178  69.8475 200.3124 0059906  29.6102 330.8398 14.47414255928440
Epoch: 2026-04-03T17:18Z
TLE epoch observation values (Epoch: 2026-04-03T17:18:42.823Z)
Latitude
-0.00005°
Longitude
108.58256°
Altitude
699.314 km
Speed
7.526 km/s
True Right ascension
13h 21m 14s
True Declination
0° 00' 00"
Sunlit
Object was in full shadow at epoch
Visualization orbit readout
Latitude
Unknown
Longitude
Unknown
Altitude
Unknown
Speed
Unknown
Apparent Right ascension
Unknown
Apparent Declination
Unknown
Sunlit
N/A
Visualization observer readout
Local Sidereal Time
13:30:05
Azimuth
Unknown
Elevation
Unknown
Doppler factor
Unknown
Orbital elements
Apogee altitude
774.712 km
Perigee altitude
689.523 km
Semi-major axis
7,110.254 km
Eccentricity
0.00599
Inclination
69.8475°
RAAN
200.3124°
Arg. of periapsis
29.6102°
True anomaly
330.50312°
Mean anomaly
330.8398°
Eccentric anomaly
330.67168°
Mean motion
3.62006 °/min
Orbital period
99.45 mins
BSTAR
0.001165
Loading maneuver chart data...
Computing Atmospheric mass density...

Documentation

Showing up to 5 results
|